Location: Boiro
(42.6475°N, 8.8834°W)
Time: 15:02:21
(UTC+01:00)

A-11 Canister half - Visible Passes

Search period start: 09 December 2021 00:00
Search period end: 19 December 2021 00:00
Orbit: 1524 x 1685 km, 47.3° (Epoch: 08 December)

Date Brightness Start Highest point End Pass type
(mag) Time Alt. Az. Time Alt. Az. Time Alt. Az.
09 Dec 9.6 04:38:08 51° ENE 04:38:08 51° ENE 04:45:20 10° E visible
09 Dec 9.0 06:36:26 37° WNW 06:41:13 87° NNE 06:51:05 10° ESE visible
10 Dec 10.0 04:17:44 40° ENE 04:17:44 40° ENE 04:23:36 10° E visible
10 Dec 9.0 06:16:02 48° WNW 06:19:30 86° NNE 06:29:24 10° ESE visible
10 Dec 9.7 08:14:53 10° WNW 08:24:07 44° SW 08:33:05 10° SSE visible
11 Dec 10.3 03:57:21 31° ENE 03:57:21 31° ENE 04:01:53 10° E visible
11 Dec 9.0 05:55:39 62° WNW 05:57:47 84° NNE 06:07:42 10° ESE visible
11 Dec 9.6 07:53:57 13° WNW 08:02:29 46° SW 08:11:34 10° SSE visible
12 Dec 10.7 03:36:59 23° ENE 03:36:59 23° ENE 03:40:09 10° E visible
12 Dec 8.9 05:35:18 77° NNW 05:36:04 82° NNE 05:46:01 10° ESE visible
12 Dec 9.5 07:33:36 18° WNW 07:40:50 49° SW 07:50:02 10° SSE visible
13 Dec 11.0 03:16:40 17° ENE 03:16:40 17° ENE 03:18:25 10° ENE visible
13 Dec 9.1 05:14:58 77° ENE 05:14:58 77° ENE 05:24:19 10° ESE visible
13 Dec 9.4 07:13:17 25° WNW 07:19:11 51° SW 07:28:29 10° SSE visible
14 Dec 11.3 02:56:22 11° ENE 02:56:22 11° ENE 02:56:41 10° ENE visible
14 Dec 9.4 04:54:41 61° E 04:54:41 61° E 05:02:36 10° ESE visible
14 Dec 9.3 06:53:00 33° W 06:57:32 53° SW 07:06:56 10° SSE visible
15 Dec 9.8 04:34:26 47° E 04:34:26 47° E 04:40:54 10° ESE visible
15 Dec 9.2 06:32:45 42° W 06:35:53 56° SW 06:45:21 10° SE visible
15 Dec 11.0 21:45:53 10° S 21:46:21 11° S 21:46:21 11° S visible
16 Dec 10.2 04:14:14 35° E 04:14:14 35° E 04:19:10 10° ESE visible
16 Dec 9.1 06:12:33 53° WSW 06:14:13 58° SW 06:23:46 10° SE visible
16 Dec 10.5 08:11:47 10° W 08:17:39 17° WSW 08:23:25 10° SSW visible
16 Dec 10.7 21:24:31 10° S 21:26:23 15° SSE 21:26:23 15° SSE visible
17 Dec 10.6 03:54:04 25° E 03:54:04 25° E 03:57:27 10° E visible
17 Dec 9.1 05:52:23 60° SW 05:52:32 60° SW 06:02:11 10° SE visible
17 Dec 10.4 07:50:43 12° W 07:56:03 19° SW 08:02:14 10° SSW visible
17 Dec 10.5 21:03:10 10° S 21:06:25 18° SSE 21:06:25 18° SSE visible
17 Dec 11.1 23:04:17 10° SW 23:04:45 12° SW 23:04:45 12° SW visible
18 Dec 11.0 03:33:56 17° E 03:33:56 17° E 03:35:44 10° E visible
18 Dec 9.2 05:32:16 58° S 05:32:16 58° S 05:40:35 10° SE visible
18 Dec 10.3 07:30:35 16° W 07:34:27 20° SW 07:40:59 10° SSW visible
18 Dec 10.3 20:41:51 10° S 20:46:26 20° SE 20:46:26 20° SE visible
18 Dec 10.8 22:42:39 10° SW 22:44:47 19° SW 22:44:47 19° SW visible
